Henderson, KY

8:22 AM CDT on September 19, 2019 (GMT -0500)
Henderson City-County

Weather History for KEHR - August, 2019

Change the Weather History Date:

Monday, August 19, 2019

  Actual Average Record
Temperature  
Mean Temperature 78 °F -  
Max Temperature 91 °F 88 °F 106 °F (1936)
Min Temperature 66 °F 66 °F 49 °F (1943)
Cooling Degree Days 14    
Growing Degree Days 28 (Base 50)    
Moisture  
Dew Point 72 °F    
Average Humidity 84    
Maximum Humidity 100    
Minimum Humidity 57    
Precipitation  
Precipitation 0.00 in - - ()
Sea Level Pressure  
Sea Level Pressure 30.00 in    
Wind  
Wind Speed 1 mph (SSW)    
Max Wind Speed 7 mph    
Max Gust Speed -    
Visibility 9 miles    
Events      
Averages and records for this station are not official NWS values.
T = Trace of Precipitation, MM = Missing Value Source: NWS Daily Summary

Daily Weather History Graph

Daily Weather History Graph

Search for Another Location

Airport or City:

Astronomy

Aug. 19, 2019 Rise Set
Actual Time 6:09 AM CDT 7:38 PM CDT
Civil Twilight 5:41 AM CDT 8:06 PM CDT
Nautical Twilight 5:08 AM CDT 8:39 PM CDT
Astronomical Twilight 4:33 AM CDT 9:14 PM CDT
Moon 10:03 PM CDT 9:47 AM CDT
Length of Visible Light 14h 24m
Length of Day
13h 29m
Waning Gibbous, 85% of the Moon is Illuminated
Aug 19
Waning Gibbous
Aug 23
Last Quarter
Aug 30
New
Sep 5
First Quarter
Sep 13
Full

Hourly Weather History & Observations

Time (CDT) Temp. Heat Index Dew Point Humidity Pressure Visibility Wind Dir Wind Speed Gust Speed Precip Events Conditions
12:56 AM 69.1 °F - 68.0 °F 96% 29.96 in 10.0 mi Calm Calm - N/A   Clear
1:56 AM 69.1 °F - 68.0 °F 96% 29.96 in 10.0 mi Calm Calm - N/A   Clear
2:56 AM 66.9 °F - 66.9 °F 100% 29.96 in 7.0 mi Calm Calm - N/A   Clear
3:56 AM 66.9 °F - 66.0 °F 97% 29.97 in 8.0 mi Calm Calm - N/A   Clear
4:56 AM 66.9 °F - 66.0 °F 97% 29.99 in 10.0 mi Calm Calm - N/A   Clear
5:50 AM 66.2 °F - 64.4 °F 94% 30.01 in 1.8 mi Calm Calm - N/A   Clear
5:56 AM 66.0 °F - 66.0 °F 100% 30.01 in 1.5 mi SSW 3.5 mph - N/A   Clear
6:02 AM 66.2 °F - 66.2 °F 100% 30.01 in 3.0 mi Calm Calm - N/A   Clear
6:56 AM 69.1 °F - 69.1 °F 100% 30.03 in 8.0 mi Calm Calm - N/A   Clear
7:56 AM 75.0 °F - 72.0 °F 90% 30.03 in 10.0 mi SSW 3.5 mph - N/A   Clear
8:56 AM 78.1 °F - 73.0 °F 84% 30.04 in 10.0 mi SW 3.5 mph - N/A   Clear
9:56 AM 81.0 °F 86.2 °F 73.9 °F 79% 30.05 in 10.0 mi WSW 4.6 mph - N/A   Clear
10:56 AM 84.0 °F 91.9 °F 75.0 °F 74% 30.04 in 10.0 mi Calm Calm - N/A   Clear
11:56 AM 86.0 °F 95.1 °F 75.0 °F 70% 30.04 in 10.0 mi Calm Calm - N/A   Clear
12:56 PM 87.1 °F 96.3 °F 75.0 °F 67% 30.03 in 10.0 mi ESE 5.8 mph - N/A   Clear
1:56 PM 89.1 °F 100.2 °F 75.9 °F 65% 30.02 in 10.0 mi SSE 6.9 mph - N/A   Clear
2:56 PM 90.0 °F 101.3 °F 75.9 °F 63% 30.00 in 10.0 mi Variable 4.6 mph - N/A   Clear
3:56 PM 90.0 °F 99.0 °F 73.9 °F 59% 29.99 in 10.0 mi Variable 3.5 mph - N/A   Clear
4:56 PM 91.0 °F 100.4 °F 73.9 °F 57% 29.98 in 10.0 mi SW 3.5 mph - N/A   Clear
5:56 PM 90.0 °F 100.2 °F 75.0 °F 61% 29.98 in 10.0 mi WSW 3.5 mph - N/A   Clear
6:56 PM 87.1 °F 97.3 °F 75.9 °F 69% 29.96 in 10.0 mi Calm Calm - N/A   Clear
7:56 PM 79.0 °F - 77.0 °F 94% 29.99 in 10.0 mi Calm Calm - N/A   Clear
8:56 PM 77.0 °F - 75.0 °F 94% 30.01 in 10.0 mi Calm Calm - N/A   Clear
9:56 PM 77.0 °F - 75.0 °F 94% 30.01 in 10.0 mi Calm Calm - N/A   Clear
10:56 PM 77.0 °F - 75.0 °F 94% 30.04 in 10.0 mi Calm Calm - N/A   Mostly Cloudy
11:56 PM 78.1 °F - 75.0 °F 90% 30.02 in 10.0 mi South 3.5 mph - N/A   Clear